Location: West Sayville
(40.7279°N, 73.0976°W)
Time: 04:17:44
(UTC+00:00)

Cosmos 1825 - Pass Details

Date: 29 October 2020
Orbit: 502 x 508 km, 82.5° (Epoch: 27 November)

Event Time Altitude Azimuth Distance (km) Brightness Sun altitude
Rises 23:30:51 0° 354° (N) 2,620 5.8 -19.3°
Reaches altitude 10° 23:32:59 10° 357° (N) 1,729 4.9 -19.7°
Maximum altitude 23:36:46 70° 81° (E) 542 2.0 -20.4°
Enters shadow 23:36:53 69° 97° (E) 544 2.0 -20.4°
